Overview Statistics Trail Chart Weather Telemetry Raw packets
 

This is the latest recevied weather packets stored in our database for station/object K7DC. If no packets are shown the sender has not sent any weather packets the latest 10 day(s).

<< 45 46 47 48 49 50 51 >>
Time Temp. Humidity Pressure Rain* Wind** Luminosity Snow
1788327762 26.11° C 65% 1017.2 hPa 0 mm - 0 W/m² -
1788327457 26.11° C 64% 1017 hPa 0 mm - 0 W/m² -
1788327157 26.67° C 63% 1017.2 hPa 0 mm - 0 W/m² -
1788326857 26.67° C 63% 1017.4 hPa 0 mm - 0 W/m² -
1788326552 26.67° C 63% 1017.1 hPa 0 mm - 0 W/m² -
1788326251 26.67° C 63% 1017.1 hPa 0 mm - 0 W/m² -
1788325946 26.67° C 64% 1017.2 hPa 0 mm - 0 W/m² -
1788325641 26.67° C 65% 1017.3 hPa 0 mm - 0 W/m² -
1788325336 26.67° C 64% 1017.2 hPa 0 mm - 0 W/m² -
1788325036 26.67° C 64% 1017.2 hPa 0 mm - 0 W/m² -
1788324733 27.22° C 61% 1017.1 hPa 0 mm - 0 W/m² -
1788324428 27.22° C 59% 1017.1 hPa 0 mm - 0 W/m² -
1788324124 27.78° C 56% 1017.1 hPa 0 mm - 0 W/m² -
1788323818 27.78° C 55% 1017 hPa 0 mm - 0 W/m² -
1788323514 27.78° C 55% 1017.1 hPa 0 mm - 0 W/m² -
1788323213 27.78° C 54% 1016.9 hPa 0 mm - 0 W/m² -
1788322908 28.33° C 54% 1017.1 hPa 0 mm - 0 W/m² -
1788322608 28.33° C 55% 1016.9 hPa 0 mm - 0 W/m² -
1788322303 28.33° C 55% 1016.9 hPa 0 mm - 0 W/m² -
1788322002 28.33° C 55% 1016.7 hPa 0 mm - 0 W/m² -
1788321697 28.33° C 54% 1017.1 hPa 0 mm - 0 W/m² -
1788321395 28.33° C 53% 1016.8 hPa 0 mm - 0 W/m² -
1788321091 28.33° C 55% 1016.6 hPa 0 mm - 0 W/m² -
1788320811 28.33° C 56% 1016.6 hPa 0 mm - 0 W/m² -
1788320485 27.78° C 57% 1016.5 hPa 0 mm - 0 W/m² -

* Rain latest hour (hover to see other rain measurements)
** Current wind speed in m/s (hover to see current wind gust speed)